| time (UTC) | temp F | wind direction | speed knots | gust knots | rain 1hr in | rain 24hr in | rain mn in | humidity % | barometer mb |
| 20260505040016 | 58 | 289 | 0.0 | 0.0 | 0.00 | 0.00 | 0.00 | 66 | 1021.0 |
| 20260505034516 | 59 | 289 | 0.0 | 1.7 | 0.00 | 0.00 | 0.00 | 64 | 1021.0 |
| 20260505033018 | 60 | 289 | 0.0 | 3.5 | 0.00 | 0.00 | 0.00 | 63 | 1021.0 |
| 20260505031514 | 61 | 317 | 0.0 | 4.3 | 0.00 | 0.00 | 0.00 | 61 | 1021.0 |
| 20260505030014 | 61 | 315 | 0.9 | 2.6 | 0.00 | 0.00 | 0.00 | 59 | 1021.0 |
| 20260505024533 | 62 | 277 | 0.0 | 1.7 | 0.00 | 0.00 | 0.00 | 58 | 1021.0 |
| 20260505023013 | 62 | 302 | 0.9 | 3.5 | 0.00 | 0.00 | 0.00 | 58 | 1021.0 |
| 20260505021514 | 62 | 126 | 0.0 | 3.5 | 0.00 | 0.00 | 0.00 | 58 | 1021.0 |
| 20260505020011 | 63 | 187 | 0.9 | 3.5 | 0.00 | 0.00 | 0.00 | 57 | 1021.0 |
| 20260505014512 | 63 | 192 | 0.9 | 2.6 | 0.00 | 0.00 | 0.00 | 55 | 1021.0 |
| 20260505013018 | 64 | 273 | 0.0 | 6.1 | 0.00 | 0.00 | 0.00 | 53 | 1021.0 |
| 20260505011510 | 64 | 205 | 0.9 | 3.5 | 0.00 | 0.00 | 0.00 | 53 | 1021.0 |
| 20260505010010 | 65 | 211 | 0.9 | 5.2 | 0.00 | 0.00 | 0.00 | 51 | 1021.0 |
| 20260505004512 | 65 | 201 | 1.7 | 6.1 | 0.00 | 0.00 | 0.00 | 50 | 1021.0 |
| 20260505003013 | 66 | 200 | 2.6 | 5.2 | 0.00 | 0.00 | 0.00 | 49 | 1021.0 |
| 20260505001509 | 66 | 227 | 0.9 | 5.2 | 0.00 | 0.00 | 0.00 | 48 | 1021.0 |
| 20260505000022 | 67 | 223 | 0.9 | 3.5 | 0.00 | 0.00 | 0.00 | 48 | 1021.0 |
| 20260504234508 | 68 | 252 | 0.9 | 6.1 | 0.00 | 0.00 | 0.00 | 47 | 1021.0 |
| 20260504233010 | 68 | 241 | 1.7 | 7.8 | 0.00 | 0.00 | 0.00 | 46 | 1021.0 |
| 20260504231521 | 69 | 244 | 1.7 | 7.8 | 0.00 | 0.00 | 0.00 | 45 | 1021.0 |
| 20260504230006 | 70 | 84 | 2.6 | 8.7 | 0.00 | 0.00 | 0.00 | 44 | 1021.0 |
| 20260504224506 | 70 | 342 | 0.9 | 12.2 | 0.00 | 0.00 | 0.00 | 45 | 1021.0 |
| 20260504223004 | 71 | 202 | 3.5 | 8.7 | 0.00 | 0.00 | 0.00 | 43 | 1021.0 |
| 20260504221505 | 72 | 143 | 1.7 | 9.6 | 0.00 | 0.00 | 0.00 | 42 | 1021.0 |
| 20260504220007 | 73 | 302 | 5.2 | 10.4 | 0.00 | 0.00 | 0.00 | 43 | 1021.0 |
| 20260504214502 | 74 | 295 | 5.2 | 9.6 | 0.00 | 0.00 | 0.00 | 40 | 1021.0 |
| 20260504213004 | 73 | 284 | 3.5 | 7.8 | 0.00 | 0.00 | 0.00 | 40 | 1021.0 |
| 20260504211559 | 73 | 265 | 4.3 | 9.6 | 0.00 | 0.00 | 0.00 | 44 | 1021.0 |
| 20260504210110 | 73 | 290 | 9.6 | 14.8 | 0.00 | 0.00 | 0.00 | 40 | 1021.0 |
| 20260504204602 | 73 | 294 | 8.7 | 13.0 | 0.00 | 0.00 | 0.00 | 42 | 1021.0 |
| 20260504203054 | 72 | 277 | 5.2 | 11.3 | 0.00 | 0.00 | 0.00 | 42 | 1021.0 |
| 20260504201554 | 72 | 299 | 6.1 | 11.3 | 0.00 | 0.00 | 0.00 | 43 | 1021.0 |
| 20260504200052 | 72 | 296 | 9.6 | 13.0 | 0.00 | 0.00 | 0.00 | 43 | 1021.0 |
| 20260504194605 | 72 | 311 | 7.0 | 13.0 | 0.00 | 0.00 | 0.00 | 44 | 1021.0 |
| 20260504193047 | 72 | 278 | 4.3 | 12.2 | 0.00 | 0.00 | 0.00 | 42 | 1021.0 |
| 20260504191549 | 71 | 295 | 7.8 | 13.9 | 0.00 | 0.00 | 0.00 | 46 | 1021.0 |
| 20260504184551 | 71 | 295 | 7.8 | 13.9 | 0.00 | 0.00 | 0.00 | 46 | 1021.0 |
| 20260504183041 | 70 | 282 | 10.4 | 15.6 | 0.00 | 0.00 | 0.00 | 43 | 1021.0 |
| 20260504181544 | 69 | 275 | 6.1 | 19.1 | 0.00 | 0.00 | 0.00 | 47 | 1021.0 |
| 20260504174536 | 69 | 279 | 4.3 | 14.8 | 0.00 | 0.00 | 0.00 | 46 | 1021.0 |
| 20260504173038 | 69 | 269 | 7.8 | 13.9 | 0.00 | 0.00 | 0.00 | 45 | 1021.0 |
| 20260504171533 | 68 | 302 | 9.6 | 16.5 | 0.00 | 0.00 | 0.00 | 48 | 1021.0 |
| 20260504150115 | 62 | 312 | 5.2 | 11.3 | 0.00 | 0.00 | 0.00 | 48 | 1021.0 |
| 20260504081514 | 36 | 295 | 0.0 | 0.0 | 0.00 | 0.00 | 0.00 | 84 | 1021.0 |
| 20260504050117 | 42 | 295 | 0.0 | 0.0 | 0.00 | 0.00 | 0.00 | 74 | 1021.0 |
| 20260504044550 | 42 | 295 | 0.0 | 0.0 | 0.00 | 0.00 | 0.00 | 74 | 1021.0 |
| 20260504043057 | 42 | 295 | 0.0 | 0.0 | 0.00 | 0.00 | 0.00 | 72 | 1021.0 |
| 20260504041548 | 42 | 295 | 0.0 | 0.0 | 0.00 | 0.00 | 0.00 | 73 | 1021.0 |